CZ-3B R/B, 45808

Orbit data source: Space-Track

CZ-3B R/B, 45808 is space debris in HEO originally from a launch on Tue, 23 Jun 2020 UTC launched from the Xichang Space Center, China (XSC). Debris objects in space refer to the collection of defunct objects orbiting the Earth. Examples of debris include non-operational satellites, rocket bodies, and fragments generated from explosions, collisions, or faulty payload assembly.

Loading next visibility...
CZ-3B R/B details
Identifier
45808, 2020-040B
Orbit
HEO
Last TLE update19 hours ago
Origin
Flag of CNCASC (CN / PRC)
ManufacturerCALT
MissionSpacecraft
Bus & MotorCZ-3A STAGE 3, Unknown motor
Mass~2,800 kg wet, ~2,800 kg dry
Launch date (UTC)
2020-06-23 (5 years ago)
Launch vehicleUnknown
Launch site
Xichang Space Center, China (XSC)
Object type
Payload
Rocket body
Debris
Shape & HBRCyl + 1 Nozzle, 12.38 m
Radar Cross Section32.704 m², Large (>1 m²)

Expand to show TLE details & history

TLE from 19 hours ago
0 CZ-3B R/B
1 45808U 20040B   25014.81666966  .00010175  00000-0  12807-2 0  9995
2 45808  28.2774 262.8589 6728659 323.9425   5.6478  3.02122769 44659
Epoch: 2025-01-14T19:36Z
Definitive object data (Epoch: 2025-01-14T19:36:00.258Z)
Latitude-0.00014°
Longitude-145.60824°
Altitude797.236 km
Speed9.559 km/s
True Right ascension17h 31m 38s
True Declination0° 00' 01"
Sunlit
Object was in daylight at TLE epoch
Visualization TLE readout
Latitude17.11906°
Longitude-0.95934°
Altitude27,319.677 km
Speed1.984 km/s
Apparent Right ascension03h 14m 54s
Apparent Declination8° 57' 04"
Sunlit
Object is in daylight
Visualization observer readout
Local Sidereal Time15:45:42
Azimuth10.039° NNE
Elevation-40.615°
Doppler factor1
Orbital elements
Apogee altitude27,440.102 km
Perigee altitude235.124 km
Semi-major axis20,215.75 km
Eccentricity0.6728659
Inclination28.2774°
RAAN262.8589°
Arg. of periapsis323.9425°
True anomaly36.87655°
Mean anomaly5.6478°
Eccentric anomaly16.77376°
Mean motion0.75511 °/min
BSTAR0.0012807
Orbital period476.75 mins
Loading maneuver chart data...
Loading historical data...
Loading historical data...
Loading historical data...
Loading historical data...
Loading historical data...
Loading historical data...
Loading historical data...
Other satellites on launch #40 in the year 2020 (2020-06-23 UTC)

CZ-3B R/B Visibility forecast

Observer location: undefined°, undefined

Span
Click to sort rows by Start time (UTC) header in descending order
Start Az.
Max El. time (UTC)
Max El. Az.
Max El.
End time (UTC)
End Az.
385 mins2025-01-15 19:32:54.143Z212.618° SW2025-01-15 19:47:54.143Z139.636° SSE38.21°2025-01-16 01:57:54.143Z121.765° SE
218 mins2025-01-16 04:25:54.143Z283.994° WNW2025-01-16 05:39:54.143Z273.403° WNW20.272°2025-01-16 08:03:54.143Z266.997° W
|